Location: NCO
(38.4404°N, 77.1340°W)
Time: 03:09:55
(UTC-04:00)

N. Korean satellite - Visible Passes

Search period start: 24 September 2018 00:00
Search period end: 04 October 2018 00:00
Orbit: 458 x 511 km, 97.2° (Epoch: 23 September)

Date Brightness Start Highest point End Pass type
(mag) Time Alt. Az. Time Alt. Az. Time Alt. Az.
26 Sep 10.8 06:23:07 10° E 06:23:41 10° E 06:24:14 10° E visible
27 Sep 9.8 19:38:05 10° SW 19:40:35 18° W 19:43:07 10° NW visible
01 Oct 9.7 19:33:49 10° SW 19:36:32 20° W 19:39:19 10° NW visible
